Starlink 32411

operational
NORAD ID: 61547 Int'l Des: 2024-184 Owner: SPXS Country: US Constellation: starlink
LEOCIRCULAR

Über Starlink 32411

Beschreibung wird geladen...

Live-Position

3D-Globus wird geladen...

Nächste Überflüge

Höhenverlauf

Altitude vs Time

uPlot chart will show altitude changes over time

Zweizeiliger Elementsatz

1 61547U 24184R 25350.46168217 .00000290 00000-0 21908-4 0 9997
2 61547 53.1615 40.5785 0001246 101.1813 258.9328 15.30193046 65766
Epoch: 16. Dez. 2025 • Age: 25 hours

Aktueller Status

Höhe 490.3 km
Geschwindigkeit 7.62 km/s
Subsatellitenpunkt -43.27°S, 0.48°W
Startdatum 15. Okt. 2024
Alter 1.1 years
Typ internet

Technische Details

Klassifizierung Payload
Masse 730.00 kg
Trockenmasse 700.00 kg
Gesamtmasse 730.00 kg
Länge 0.30 m
Durchmesser 4.10 m
Spannweite 29.00 m
Form Box + pan
Hersteller SPXS
Bus-Typ Starlink V2M
Phasenstatus In Orbit
Besitzer/Staat SPXS/US

Große Konstellationen

Loading constellations...